NOAA 16 DEB

Satellite information

Favourite Embed

Satellite Type and Status

DEBRISIN ORBIT

Key statistics

Satellite NOAA 16 DEB at a glance.

Uptime

8995

Days in orbit

Revolutions

≈ 14.4

Per day

Orbit

SSO

Sun Synchronous Orbit

Inclination

98.8

Latest

Satellite identification and parameters

Extended collection of information and parameters for NOAA 16 DEB.

Object identification

Identified? True

Debris? True

Object name: NOAA 16 DEB

International designator: 2000-055KV

Object number (NORAD): 41416

Object ID (CCSDS): 41416

Country: UNITED STATES OF AMERICA (US)

Current information (Y/N): Y

RCS size: SMALL

Orbital parameters

Period: 100.327 minutes

Inclination: 98.7633 deg

SMA: 7152.208 km

Apoapsis: 795.527 km

Periapsis: 752.619 km

RAAN: 228.3473 deg

Eccentricy: 0.0029996

Argument of periapsis: 219.7531 deg

Mean anomaly: 140.1456 deg

Mean motion: 14.35299635 rev/day

Mean motion (dot): 0.00008273 rev/day2

B* drag term: 0.0028857 1/REarth

Two-line elements (TLE)

Creation date: May 7, 2025, 3:14 a.m.

Reference frame: TEME

Reference center: EARTH

Epoch: May 6, 2025, 1:31 a.m. UTC

TLE line 0: 0 NOAA 16 DEB

TLE line 1: 1 41416U 00055KV 25126.06363913 .00008273 00000-0 28857-2 0 9995

TLE line 2: 2 41416 98.7633 228.3473 0029996 219.7531 140.1456 14.35299635476315

Live tracking on map

Real-time ground track for satellite NOAA 16 DEB.

In-orbit conjunctions

A list of the most updated potential collisions computed for object NOAA 16 DEB.

Target Orbit TCA Probability of collision Miss distance Type
COSMOS 2251 DEB LEO 2025-03-07 09:02:02 0.0001373057 187.0 (m) DEBRIS
CZ-6A DEB LEO 2025-02-26 01:18:36 0.0001681469 256.0 (m) DEBRIS
CZ-6A DEB LEO 2025-01-02 08:29:39 0.000227343 721.0 (m) DEBRIS

Associated space launch

The NOAA K, L and M POES satellites begin the fifth generation of improved environmental monitoring in support of NOAA missions. The instrument payload has significant improvements and additions/deletions. The instrument changes have effected the spacecraft subsystems and data formats.

NOAA 16 DEB was lifted into orbit during the mission ‘Titan II SLV | NOAA 16’, on board a Titan II SLV space rocket.

The launch took place on Sept. 21, 2000, 10:22 a.m. from Space Launch Complex 4W.

For more information about the launch, click the button.

Launch to space Titan II SLV | NOAA 16
Titan II SLV | NOAA 16

Agency: N/A

Status: Launch Successful

Launch date: Sept. 21, 2000, 10:22 a.m. UTC

Rocket: Titan II SLV

Launch pad: Space Launch Complex 4W

Location: Vandenberg SFB, CA, USA

...

Latest news about this satellite

There are no fresh news available about this satellite. Check back as we update our databases every day.


Newsletter sign-up

Weekly statistics, charts and insights to help you stay on top of the space industry.